Weather in Raihorodka

Ukraine / Luhansk Region     48°49′10″N   39°04′45″E
temp.,
°C
wind,
m/s
gust,
m/s
humid.,
%
clouds,
%
prec.,
mm/h
press.,
hPa
HPBL,
m
20 april, tue
tue2000:00+12e3580100 0.2 1013219
03:00+11ese2585100 0.5 1012192
06:00+9e3690100 0.0 1009182
09:00+13ese6876100 0.1 1009854
12:00+12se5888100 3.1 1006612
15:00+11ese489399 11.5 1003362
18:00+11s4794100 2.1 1002479
21:00+11ssw81280100 2.2 1003839
21 april, wed
wed2100:00+10ssw91487100 0.2 1003937
03:00+10wsw91485100 0.3 1007967
06:00+9sw71185100 0.1 1010650
09:00+12wsw710655 0.1 10131011
12:00+15wsw794578 0.1 10132276
15:00+15w5842100 0.1 10142124
18:00+14sw575390 0.1 1016967
21:00+10ssw367311 0.4 1018118
22 april, thu
thu2200:00+9ssw48834 0.0 1018174
03:00+8ssw37875 0.0 1019140
06:00+7ssw25875 0.0 1020116
09:00+13sw45633 0.0 1021693
12:00+17sw454515 0.0 10212005
15:00+18sw453697 0.0 10202478
18:00+16ssw4652100 0.0 1021498
21:00+13ssw355694 0.0 102272
23 april, fri
fri2300:00+12ssw376896 0.0 1022161
03:00+11ssw237295 0.0 102270
06:00+11sw1175100 0.0 102225
09:00+13sw2365100 0.0 1022405
12:00+17sw224317 0.4 10211791
15:00+17sw234193 0.4 10201885
18:00+17sw234698 0.0 1020752
21:00+14ssw4859100 0.0 1019264
24 april, sat
sat2400:00+11ssw38725 0.0 1019166
03:00+9ssw2473100 0.0 101787
06:00+9s31077100 0.0 1016289
09:00+12ssw61061100 0.0 1016666
12:00+13w9106799 0.4 10151102
15:00+10w796258 0.5 10161171
18:00+12w6135040 0.0 10162124
21:00+7w6124510 0.0 1019734